FW8892 Weather Reports


Display with metric or nautical units.
time (UTC)temp
F
wind
direction
speed
MPH
gust
MPH
rain 1hr
in
rain 24hr
in
rain mn
in
humidity
%
barometer
mb
20260906115530 73 0 0.0 2.0 0.00 0.00 0.00 91 1013.4
20260906115028 73 213 0.0 3.0 0.00 0.00 0.00 91 1013.4
20260906114551 73 0 0.0 6.0 0.00 0.00 0.00 91 1013.2
20260906114028 73 0 0.0 6.0 0.00 0.00 0.00 91 1013.3
20260906113529 73 0 0.0 6.0 0.00 0.00 0.00 91 1013.2
20260906113054 73 0 1.0 6.0 0.00 0.00 0.00 91 1013.0
20260906112528 73 236 1.0 6.0 0.00 0.00 0.00 91 1013.0
20260906112029 73 0 1.0 6.0 0.00 0.00 0.00 91 1013.0
20260906111548 73 200 0.0 6.0 0.00 0.00 0.00 91 1013.1
20260906111030 73 0 2.0 6.0 0.00 0.00 0.00 92 1012.9
20260906110529 73 240 1.0 6.0 0.00 0.00 0.00 92 1013.0
20260906110056 73 0 1.0 3.0 0.00 0.00 0.00 91 1012.8
20260906105529 73 0 0.0 3.0 0.00 0.00 0.00 91 1012.8
20260906105027 73 0 0.0 3.0 0.00 0.00 0.00 91 1012.8
20260906104556 73 167 0.0 3.0 0.00 0.00 0.00 91 1012.7
20260906104028 73 167 0.0 3.0 0.00 0.00 0.00 90 1012.7
20260906103528 73 0 0.0 3.0 0.00 0.00 0.00 90 1012.7
20260906103100 73 0 0.0 2.0 0.00 0.00 0.00 90 1012.7
20260906102531 73 0 0.0 2.0 0.00 0.00 0.00 90 1012.7
20260906102030 73 0 0.0 2.0 0.00 0.00 0.00 89 1012.5
20260906101548 73 0 0.0 1.0 0.00 0.00 0.00 89 1012.5
20260906101031 74 0 0.0 2.0 0.00 0.00 0.00 89 1012.4
20260906100528 74 0 0.0 3.0 0.00 0.00 0.00 89 1012.4
20260906100055 74 113 1.0 3.0 0.00 0.00 0.00 89 1012.3
20260906095529 74 115 0.0 3.0 0.00 0.00 0.00 89 1012.3
20260906095029 74 0 1.0 3.0 0.00 0.00 0.00 89 1012.3
20260906094551 74 132 0.0 2.0 0.00 0.00 0.00 88 1012.2
20260906094030 74 190 0.0 4.0 0.00 0.00 0.00 88 1012.2
20260906093530 74 196 0.0 4.0 0.00 0.00 0.00 88 1012.3
20260906093054 74 0 1.0 5.0 0.00 0.00 0.00 88 1012.4
20260906092529 74 139 0.0 5.0 0.00 0.00 0.00 88 1012.2
20260906092029 74 0 0.0 5.0 0.00 0.00 0.00 87 1012.3
20260906091559 75 147 0.0 2.0 0.00 0.00 0.00 87 1012.2
20260906091027 75 0 0.0 2.0 0.00 0.00 0.00 87 1012.2
20260906090529 75 0 0.0 4.0 0.00 0.00 0.00 86 1012.2
20260906090055 75 143 1.0 4.0 0.00 0.00 0.00 86 1012.2
20260906085528 75 150 1.0 4.0 0.00 0.00 0.00 86 1012.1
20260906085029 75 0 0.0 6.0 0.00 0.00 0.00 86 1012.1
20260906084549 75 166 2.0 6.0 0.00 0.00 0.00 86 1012.1
20260906084026 75 180 2.0 6.0 0.00 0.00 0.00 85 1012.1
20260906083529 76 167 1.0 6.0 0.00 0.00 0.00 85 1012.1
20260906083048 76 186 2.0 6.0 0.00 0.00 0.00 85 1012.2
20260906082528 76 159 2.0 5.0 0.00 0.00 0.00 85 1012.2
20260906082029 76 159 2.0 6.0 0.00 0.00 0.00 84 1012.2
20260906081548 76 144 2.0 7.0 0.00 0.00 0.00 84 1012.2
20260906081029 76 161 2.0 7.0 0.00 0.00 0.00 84 1012.1
20260906080532 76 178 3.0 6.0 0.00 0.00 0.00 84 1012.1
20260906080057 76 184 2.0 6.0 0.00 0.00 0.00 84 1012.1
20260906075529 76 163 2.0 7.0 0.00 0.00 0.00 84 1012.2
20260906075029 76 203 2.0 7.0 0.00 0.00 0.00 83 1012.2
20260906074550 76 0 1.0 7.0 0.00 0.00 0.00 83 1012.2
20260906074028 76 180 1.0 6.0 0.00 0.00 0.00 83 1012.2
20260906073529 77 176 2.0 6.0 0.00 0.00 0.00 82 1012.3
20260906073048 77 135 2.0 6.0 0.00 0.00 0.00 82 1012.2
20260906072529 77 148 3.0 8.0 0.00 0.00 0.00 82 1012.2
20260906072029 77 176 3.0 8.0 0.00 0.00 0.00 82 1012.3
20260906071600 77 167 2.0 7.0 0.00 0.00 0.00 81 1012.3
20260906071029 77 195 2.0 7.0 0.00 0.00 0.00 81 1012.3
20260906070529 77 128 1.0 5.0 0.00 0.00 0.00 81 1012.5
20260906070058 77 175 1.0 6.0 0.00 0.00 0.00 81 1012.5
20260906065529 78 150 1.0 7.0 0.00 0.00 0.00 81 1012.5
20260906065028 78 185 2.0 7.0 0.00 0.00 0.00 80 1012.4
20260906064549 78 153 2.0 10.0 0.00 0.00 0.00 80 1012.3
20260906064029 78 158 3.0 10.0 0.00 0.00 0.00 80 1012.5
20260906063527 78 148 3.0 7.0 0.00 0.00 0.00 80 1012.4
20260906063048 78 117 2.0 11.0 0.00 0.00 0.00 81 1012.5
20260906062528 78 121 2.0 11.0 0.00 0.00 0.00 81 1012.7
20260906062031 78 128 4.0 10.0 0.00 0.00 0.00 81 1012.8
20260906061613 78 127 3.0 10.0 0.00 0.00 0.00 81 1012.9
20260906061027 78 127 3.0 10.0 0.00 0.00 0.00 82 1012.9
20260906060530 78 168 2.0 10.0 0.00 0.00 0.00 83 1012.9
20260906055529 78 103 2.0 6.0 0.00 0.00 0.00 83 1013.0
20260906055031 78 132 2.0 8.0 0.00 0.00 0.00 83 1013.0
20260906054601 79 153 1.0 8.0 0.00 0.00 0.00 83 1013.1
20260906054029 79 128 3.0 8.0 0.00 0.00 0.00 82 1013.1
20260906053530 79 98 1.0 5.0 0.00 0.00 0.00 82 1013.1
20260906053057 79 126 2.0 5.0 0.00 0.00 0.00 81 1013.0
20260906052527 79 116 2.0 4.0 0.00 0.00 0.00 81 1013.0
20260906052029 80 85 1.0 4.0 0.00 0.00 0.00 80 1013.0
20260906051604 80 0 1.0 6.0 0.00 0.00 0.00 80 1013.0
20260906051028 80 110 2.0 6.0 0.00 0.00 0.00 79 1013.0
20260906050531 80 69 3.0 5.0 0.00 0.00 0.00 79 1013.1
20260906050057 80 65 1.0 7.0 0.00 0.00 0.00 78 1013.0
20260906045529 80 117 0.0 7.0 0.00 0.00 0.00 78 1013.0
20260906045033 81 35 2.0 5.0 0.00 0.00 0.00 78 1013.0
20260906044548 81 67 1.0 4.0 0.00 0.00 0.00 78 1012.8
20260906044034 81 57 0.0 6.0 0.00 0.00 0.00 78 1012.9
20260906043528 81 82 1.0 6.0 0.00 0.00 0.00 78 1013.0
20260906043046 81 339 3.0 5.0 0.00 0.00 0.00 78 1013.1
20260906042530 81 0 0.0 3.0 0.00 0.00 0.00 77 1012.8
20260906042028 81 105 1.0 4.0 0.00 0.00 0.00 77 1012.8
20260906041558 81 186 0.0 4.0 0.00 0.00 0.00 77 1012.7
20260906041029 81 153 2.0 4.0 0.00 0.00 0.00 78 1012.8
20260906040527 81 105 1.0 6.0 0.00 0.00 0.00 79 1013.0
20260906040053 81 213 1.0 6.0 0.00 0.00 0.00 79 1013.0
20260906035526 81 104 2.0 5.0 0.00 0.00 0.00 80 1013.2
20260906035030 81 159 1.0 5.0 0.00 0.00 0.00 80 1013.1
20260906034555 81 69 2.0 4.0 0.00 0.00 0.00 81 1013.2
20260906034029 82 75 0.0 0.0 0.00 0.00 0.00 80 1012.9
20260906033529 82 0 0.0 0.0 0.00 0.00 0.00 79 1012.8
20260906033049 82 0 0.0 0.0 0.00 0.00 0.00 80 1012.8
20260906032529 82 0 0.0 0.0 0.00 0.00 0.00 79 1013.0
20260906032030 83 0 0.0 0.0 0.00 0.00 0.00 79 1012.9
20260906031556 83 0 0.0 0.0 0.00 0.00 0.00 78 1012.8
20260906031032 83 0 0.0 2.0 0.00 0.00 0.00 78 1012.7
20260906030527 83 0 0.0 2.0 0.00 0.00 0.00 77 1012.5
20260906030054 84 75 0.0 4.0 0.00 0.00 0.00 77 1012.5
20260906025530 84 75 0.0 4.0 0.00 0.00 0.00 77 1012.4
20260906025029 84 60 1.0 6.0 0.00 0.00 0.00 77 1012.2
20260906024550 84 113 1.0 6.0 0.00 0.00 0.00 77 1012.2
20260906024030 84 117 1.0 4.0 0.00 0.00 0.00 77 1012.2
20260906023530 84 67 0.0 6.0 0.00 0.00 0.00 77 1012.1
20260906023050 84 258 1.0 6.0 0.00 0.00 0.00 77 1012.0
20260906022529 84 115 2.0 5.0 0.00 0.00 0.00 77 1011.8
20260906022029 84 0 1.0 3.0 0.00 0.00 0.00 76 1011.9
20260906021554 84 121 0.0 2.0 0.00 0.00 0.00 76 1011.8
20260906021028 84 121 1.0 2.0 0.00 0.00 0.00 75 1011.6
20260906020528 84 197 0.0 2.0 0.00 0.00 0.00 75 1011.3
20260906020057 84 197 0.0 1.0 0.00 0.00 0.00 73 1011.4
20260906015528 85 0 0.0 1.0 0.00 0.00 0.00 73 1011.4
20260906015029 85 0 0.0 2.0 0.00 0.00 0.00 72 1011.4
20260906014607 85 0 0.0 2.0 0.00 0.00 0.00 72 1011.4
20260906014028 85 0 0.0 3.0 0.00 0.00 0.00 73 1011.5
20260906013529 85 242 0.0 3.0 0.00 0.00 0.00 72 1011.2
20260906013059 84 246 0.0 3.0 0.00 0.00 0.00 74 1011.3
20260906012528 84 244 0.0 2.0 0.00 0.00 0.00 73 1011.4
20260906012029 84 0 0.0 2.0 0.00 0.00 0.00 74 1011.4
20260906011546 85 0 0.0 2.0 0.00 0.00 0.00 75 1011.4
20260906011029 85 0 0.0 2.0 0.00 0.00 0.00 75 1011.2
20260906010528 85 0 0.0 0.0 0.00 0.00 0.00 75 1011.2
20260906010100 85 0 0.0 0.0 0.00 0.00 0.00 74 1011.2
20260906005530 86 0 0.0 0.0 0.00 0.00 0.00 73 1011.3
20260906005028 86 0 0.0 1.0 0.00 0.00 0.00 73 1011.3
20260906004552 87 0 0.0 1.0 0.00 0.00 0.00 72 1011.3
20260906004031 87 0 0.0 1.0 0.00 0.00 0.00 71 1011.3
20260906003530 88 0 0.0 0.0 0.00 0.00 0.00 69 1011.3
20260906003047 88 0 0.0 1.0 0.00 0.00 0.00 69 1011.5
20260906002527 88 0 0.0 1.0 0.00 0.00 0.00 68 1011.5
20260906002029 89 0 0.0 1.0 0.00 0.00 0.00 67 1011.5
20260906001559 90 0 0.0 1.0 0.00 0.00 0.00 65 1011.3
20260906001030 90 0 0.0 1.0 0.00 0.00 0.00 65 1011.4
20260906000529 91 0 0.0 1.0 0.00 0.00 0.00 63 1011.3
20260906000059 91 0 0.0 1.0 0.00 0.00 0.00 62 1011.4
20260905235529 92 0 0.0 1.0 0.00 0.00 0.00 61 1011.3
20260905235030 92 0 0.0 1.0 0.00 0.00 0.00 60 1011.4
20260905234550 93 0 0.0 1.0 0.00 0.00 0.00 59 1011.3
20260905234029 93 0 0.0 1.0 0.00 0.00 0.00 59 1011.4
20260905233532 93 235 0.0 1.0 0.00 0.00 0.00 58 1011.4
20260905233109 94 0 0.0 2.0 0.00 0.00 0.00 57 1011.3
20260905232528 94 0 0.0 3.0 0.00 0.00 0.00 56 1011.4
20260905232029 94 0 0.0 4.0 0.00 0.00 0.00 55 1011.2
20260905231559 95 223 0.0 4.0 0.00 0.00 0.00 55 1011.2
20260905231034 95 247 0.0 4.0 0.00 0.00 0.00 55 1011.3
20260905230529 95 238 1.0 4.0 0.00 0.00 0.00 54 1011.3
20260905230057 95 233 1.0 4.0 0.00 0.00 0.00 54 1011.3
20260905225528 95 239 0.0 4.0 0.00 0.00 0.00 54 1011.3
20260905225029 96 248 1.0 4.0 0.00 0.00 0.00 53 1011.3
20260905224548 96 242 0.0 4.0 0.00 0.00 0.00 54 1011.2
20260905224028 96 194 1.0 4.0 0.00 0.00 0.00 53 1011.3
20260905223533 96 289 0.0 4.0 0.00 0.00 0.00 53 1011.2
20260905223101 96 252 1.0 4.0 0.00 0.00 0.00 52 1011.2
20260905222529 97 227 1.0 4.0 0.00 0.00 0.00 53 1011.2
20260905222029 97 258 1.0 4.0 0.00 0.00 0.00 52 1011.3
20260905221557 97 218 1.0 3.0 0.00 0.00 0.00 52 1011.3
20260905221029 97 296 0.0 3.0 0.00 0.00 0.00 52 1011.3
20260905220529 97 219 0.0 3.0 0.00 0.00 0.00 52 1011.3
20260905220058 98 263 1.0 3.0 0.00 0.00 0.00 51 1011.3
20260905215529 98 232 0.0 4.0 0.00 0.00 0.00 51 1011.3
20260905215028 98 282 0.0 4.0 0.00 0.00 0.00 50 1011.3
20260905214553 98 243 1.0 5.0 0.00 0.00 0.00 49 1011.3
20260905214030 99 0 1.0 5.0 0.00 0.00 0.00 50 1011.3
20260905213528 99 235 2.0 5.0 0.00 0.00 0.00 50 1011.3
20260905213059 99 0 1.0 4.0 0.00 0.00 0.00 48 1011.4
20260905212529 99 13 2.0 4.0 0.00 0.00 0.00 48 1011.4
20260905212032 100 344 1.0 2.0 0.00 0.00 0.00 48 1011.4
20260905211553 100 297 0.0 3.0 0.00 0.00 0.00 47 1011.4
20260905211028 100 0 0.0 4.0 0.00 0.00 0.00 46 1011.4
20260905210528 100 264 1.0 4.0 0.00 0.00 0.00 49 1011.4
20260905210055 100 22 0.0 3.0 0.00 0.00 0.00 46 1011.6
20260905205556 100 62 0.0 3.0 0.00 0.00 0.00 48 1011.5
20260905205030 100 295 1.0 4.0 0.00 0.00 0.00 46 1011.7
20260905204955 100 278 1.0 4.0 0.00 0.00 0.00 48 1011.7
20260905204029 100 190 0.0 3.0 0.00 0.00 0.00 47 1011.6
20260905203529 100 319 1.0 3.0 0.00 0.00 0.00 47 1011.7
20260905203053 100 281 2.0 5.0 0.00 0.00 0.00 49 1011.9
20260905202528 100 261 1.0 5.0 0.00 0.00 0.00 46 1011.9
20260905202032 101 319 1.0 6.0 0.00 0.00 0.00 48 1012.0
20260905201559 101 287 1.0 6.0 0.00 0.00 0.00 48 1012.2
20260905201028 101 350 3.0 6.0 0.00 0.00 0.00 48 1012.3
20260905200532 101 194 1.0 5.0 0.00 0.00 0.00 48 1012.3
20260905195530 101 310 0.0 5.0 0.00 0.00 0.00 51 1012.4
20260905195029 100 0 2.0 5.0 0.00 0.00 0.00 48 1012.5
20260905194556 100 209 2.0 5.0 0.00 0.00 0.00 48 1012.5
20260905194029 99 198 1.0 5.0 0.00 0.00 0.00 52 1012.8
20260905193532 98 286 1.0 4.0 0.00 0.00 0.00 53 1012.9
20260905193050 98 290 1.0 4.0 0.00 0.00 0.00 55 1012.9
20260905192531 97 234 1.0 4.0 0.00 0.00 0.00 54 1012.9
20260905192031 96 338 1.0 3.0 0.00 0.00 0.00 53 1012.9
20260905191549 96 339 1.0 5.0 0.00 0.00 0.00 54 1013.0
20260905191031 96 259 1.0 5.0 0.00 0.00 0.00 53 1013.0
20260905190529 97 13 3.0 8.0 0.00 0.00 0.00 52 1012.9
20260905190059 97 59 4.0 8.0 0.00 0.00 0.00 51 1013.0
20260905185530 98 82 2.0 5.0 0.00 0.00 0.00 54 1013.3
20260905185029 98 67 2.0 5.0 0.00 0.00 0.00 51 1013.3
20260905184553 98 0 1.0 4.0 0.00 0.00 0.00 50 1013.4
20260905184029 98 107 1.0 6.0 0.00 0.00 0.00 51 1013.4
20260905183532 98 86 1.0 6.0 0.00 0.00 0.00 50 1013.6
20260905183106 98 53 2.0 6.0 0.00 0.00 0.00 51 1013.6
20260905182529 98 276 1.0 6.0 0.00 0.00 0.00 52 1013.7
20260905182030 98 19 3.0 6.0 0.00 0.00 0.00 50 1013.8
20260905181558 99 355 1.0 5.0 0.00 0.00 0.00 51 1013.8
20260905181031 99 55 2.0 5.0 0.00 0.00 0.00 51 1013.9
20260905180529 99 325 2.0 4.0 0.00 0.00 0.00 52 1014.0
20260905180057 99 355 2.0 4.0 0.00 0.00 0.00 51 1013.9
20260905175530 99 351 2.0 7.0 0.00 0.00 0.00 50 1014.0
20260905175028 99 240 1.0 7.0 0.00 0.00 0.00 51 1014.0
20260905174549 99 190 1.0 5.0 0.00 0.00 0.00 54 1014.1
20260905174035 99 34 1.0 5.0 0.00 0.00 0.00 52 1014.1
20260905173528 98 165 1.0 4.0 0.00 0.00 0.00 52 1014.2
20260905173059 98 299 1.0 4.0 0.00 0.00 0.00 52 1014.3
20260905172530 98 0 1.0 8.0 0.00 0.00 0.00 53 1014.3
20260905172030 97 15 1.0 8.0 0.00 0.00 0.00 52 1014.3
20260905171559 97 349 2.0 4.0 0.00 0.00 0.00 52 1014.2
20260905171029 97 0 1.0 4.0 0.00 0.00 0.00 54 1014.4
20260905170528 98 312 1.0 4.0 0.00 0.00 0.00 56 1014.4
20260905170100 98 45 1.0 4.0 0.00 0.00 0.00 56 1014.5
20260905165528 98 22 1.0 3.0 0.00 0.00 0.00 54 1014.5
20260905165030 98 269 1.0 3.0 0.00 0.00 0.00 58 1014.5
20260905164549 97 0 1.0 5.0 0.00 0.00 0.00 57 1014.5
20260905164029 97 308 1.0 5.0 0.00 0.00 0.00 59 1014.6
20260905163528 96 219 1.0 4.0 0.00 0.00 0.00 58 1014.7
20260905163237 96 249 0.0 6.0 0.00 0.00 0.00 59 1014.7
20260905162529 95 5 2.0 6.0 0.00 0.00 0.00 58 1014.8
20260905162030 95 355 3.0 7.0 0.00 0.00 0.00 57 1014.9
20260905161600 95 343 2.0 7.0 0.00 0.00 0.00 58 1014.9
20260905161030 96 5 1.0 5.0 0.00 0.00 0.00 61 1014.9
20260905160529 96 159 1.0 5.0 0.00 0.00 0.00 59 1014.9
20260905160058 96 82 1.0 5.0 0.00 0.00 0.00 60 1014.9
20260905155532 95 0 1.0 5.0 0.00 0.00 0.00 61 1014.9
20260905155029 95 325 1.0 3.0 0.00 0.00 0.00 62 1014.9
20260905154550 95 290 1.0 4.0 0.00 0.00 0.00 65 1015.0
20260905154030 94 0 1.0 4.0 0.00 0.00 0.00 62 1015.1
20260905153528 93 313 1.0 4.0 0.00 0.00 0.00 63 1015.1
20260905153110 93 346 2.0 5.0 0.00 0.00 0.00 63 1015.1
20260905152528 93 5 1.0 5.0 0.00 0.00 0.00 65 1015.2
20260905152033 93 279 3.0 5.0 0.00 0.00 0.00 63 1015.2
20260905151549 92 49 1.0 4.0 0.00 0.00 0.00 65 1015.1
20260905151030 92 305 1.0 4.0 0.00 0.00 0.00 68 1015.3
20260905150528 91 313 1.0 4.0 0.00 0.00 0.00 67 1015.3
20260905150058 91 318 1.0 4.0 0.00 0.00 0.00 69 1015.3
20260905145530 90 317 1.0 5.0 0.00 0.00 0.00 70 1015.3
20260905145030 90 13 1.0 5.0 0.00 0.00 0.00 71 1015.3
20260905144555 89 340 1.0 4.0 0.00 0.00 0.00 72 1015.4
20260905144029 89 0 0.0 4.0 0.00 0.00 0.00 74 1015.3
20260905143529 88 346 1.0 4.0 0.00 0.00 0.00 72 1015.3
20260905143058 88 360 1.0 3.0 0.00 0.00 0.00 74 1015.3
20260905142528 87 348 1.0 3.0 0.00 0.00 0.00 76 1015.4
20260905142029 86 0 0.0 0.0 0.00 0.00 0.00 78 1015.4
20260905141602 85 0 0.0 0.0 0.00 0.00 0.00 80 1015.4
20260905141029 84 0 0.0 0.0 0.00 0.00 0.00 84 1015.4
20260905140530 82 0 0.0 0.0 0.00 0.00 0.00 86 1015.4
20260905140106 81 0 0.0 0.0 0.00 0.00 0.00 87 1015.4
20260905135529 80 0 0.0 0.0 0.00 0.00 0.00 89 1015.4
20260905135030 79 0 0.0 0.0 0.00 0.00 0.00 91 1015.4
20260905134552 78 0 0.0 0.0 0.00 0.00 0.00 92 1015.5
20260905134030 77 0 0.0 0.0 0.00 0.00 0.00 92 1015.5
20260905133529 77 0 0.0 0.0 0.00 0.00 0.00 92 1015.4
20260905133049 77 0 0.0 0.0 0.00 0.00 0.00 93 1015.6
20260905132529 76 0 0.0 3.0 0.00 0.00 0.00 93 1015.5
20260905132029 76 0 0.0 3.0 0.00 0.00 0.00 94 1015.5
20260905131614 76 167 0.0 2.0 0.00 0.00 0.00 94 1015.4
20260905131029 75 139 0.0 2.0 0.00 0.00 0.00 95 1015.4
20260905130530 75 139 0.0 2.0 0.00 0.00 0.00 95 1015.4
20260905130055 75 173 1.0 2.0 0.00 0.00 0.00 96 1015.4
20260905125531 75 173 0.0 2.0 0.00 0.00 0.00 96 1015.3
20260905125029 74 173 0.0 2.0 0.00 0.00 0.00 96 1015.3
20260905124557 74 0 0.0 0.0 0.00 0.00 0.00 97 1015.4
20260905124034 74 0 0.0 0.0 0.00 0.00 0.00 97 1015.4
20260905123530 73 0 0.0 0.0 0.00 0.00 0.00 97 1015.3
20260905123053 73 0 0.0 0.0 0.00 0.00 0.00 97 1015.3
20260905122532 73 0 0.0 0.0 0.00 0.00 0.00 97 1015.2
20260905122029 73 0 0.0 0.0 0.00 0.00 0.00 97 1015.2
20260905121557 73 0 0.0 0.0 0.00 0.00 0.00 97 1015.2
20260905121029 73 0 0.0 0.0 0.00 0.00 0.00 97 1015.2
20260905120530 72 0 0.0 0.0 0.00 0.00 0.00 97 1015.2
20260905120059 72 0 0.0 0.0 0.00 0.00 0.00 97 1015.1